Flag for Australia Weather past 2 weeks in Hobart, Tasmania, Australia

Now
57 °F

Passing clouds.


Feels Like: 54 °F
Forecast: 54 / 60 °F
Wind: 15 mph from Southeast

Location: Hobart Airport

Current Time: Jan 30, 2015 at 1:22:34 AM

Latest Report: Jan 30, 2015 at 1:00 AM


Visibility: N/A

Pressure: 30.18 "Hg

Humidity: 59%

Dew point: 43 °F

Location of HobartLocation

Historic Weather in Hobart — Graph

°F

Hobart temperature yesterday

Maximum temperature yesterday: 61 °F (at 3:00 PM)
Minimum temperature yesterday: 54 °F (at 12:00 AM)
Average temperature yesterday: 57 °F

Past Weeks' High & Low Weather Summary

 TemperatureHumidityPressure
High81 °F (Jan 21, 3:30 PM)94% (Jan 15, 12:00 AM)30.30 "Hg (Jan 15, 12:00 AM)
Low50 °F (Jan 17, 6:30 AM)28% (Jan 23, 2:30 PM)29.27 "Hg (Jan 16, 1:00 PM)
Average61 °F59%29.78 "Hg
* Reported Midnight between Jan 14 and Jan 15 — Midnight between Jan 29 and Jan 30, Hobart, Weather by CustomWeather, © 2014

Note: Actual official high and low records may vary slightly from our data, if they occured in-between our weather recording intervals... More about our weather records

Advertising

Hobart weather history for previous 24 hours

 ConditionsComfort  
Time TempWeatherWind HumidityBarometerVisibility
12:00 AM
Jan 30
55 °FSprinkles. Partly cloudy.16 mph63%30.18 "HgN/A
11:30 PM
Jan 29
57 °FPassing clouds.17 mph59%30.18 "HgN/A
11:00 PM55 °FPassing clouds.17 mph67%30.21 "HgN/A
10:30 PM57 °FPassing clouds.21 mph59%30.21 "HgN/A
10:00 PM57 °FPassing clouds.20 mph55%30.21 "HgN/A
9:30 PM55 °FPassing clouds.16 mph59%30.21 "HgN/A
9:00 PM55 °FPartly cloudy.17 mph67%30.21 "HgN/A
8:30 PM57 °FBroken clouds.18 mph59%30.21 "HgN/A
8:00 PM57 °FBroken clouds.17 mph55%30.21 "HgN/A
7:30 PM57 °FBroken clouds.21 mph55%30.21 "HgN/A
7:00 PM57 °FPartly sunny.18 mph59%30.21 "HgN/A
6:30 PM59 °FBroken clouds.21 mph51%30.21 "HgN/A
6:00 PM59 °FPartly sunny.18 mph51%30.21 "HgN/A
5:30 PM57 °FBroken clouds.14 mph63%30.21 "HgN/A
5:00 PM57 °FScattered showers. Partly sunny.20 mph67%30.24 "HgN/A
4:30 PM59 °FPartly sunny.21 mph63%30.24 "HgN/A
4:00 PM59 °FPartly sunny.21 mph59%30.24 "HgN/A
3:30 PM59 °FBroken clouds.18 mph55%30.24 "HgN/A
3:00 PM61 °FBroken clouds.21 mph59%30.24 "HgN/A
2:00 PM59 °FBroken clouds.17 mph55%30.24 "HgN/A
1:30 PM57 °FBroken clouds.17 mph67%30.27 "HgN/A
1:00 PM59 °FMostly cloudy.20 mph59%30.27 "HgN/A
12:30 PM59 °FMore clouds than sun.16 mph55%30.27 "HgN/A
12:00 PM59 °FMore clouds than sun.18 mph51%30.27 "HgN/A
11:30 AM59 °FBroken clouds.20 mph59%30.27 "HgN/A
11:00 AM59 °FOvercast.20 mph51%30.27 "HgN/A
10:30 AM59 °FScattered showers. Overcast.17 mph55%30.27 "HgN/A
10:00 AM59 °FOvercast.17 mph55%30.27 "HgN/A
9:30 AM57 °FPartly sunny.17 mph59%30.27 "HgN/A
9:00 AM57 °FBroken clouds.18 mph59%30.27 "HgN/A
8:30 AM57 °FBroken clouds.14 mph59%30.27 "HgN/A
8:00 AM55 °FPartly sunny.10 mph72%30.27 "HgN/A
7:00 AM55 °FScattered showers. Broken clouds.17 mph67%30.27 "HgN/A
6:30 AM55 °FPartly sunny.15 mph59%30.24 "HgN/A
6:00 AM55 °FPassing clouds.14 mph59%30.24 "HgN/A
5:30 AM55 °FPassing clouds.13 mph59%30.24 "HgN/A
5:00 AM55 °FPassing clouds.14 mph59%30.24 "HgN/A
4:30 AM57 °FPassing clouds.15 mph51%30.24 "HgN/A
4:00 AM57 °FPassing clouds.15 mph51%30.24 "HgN/A
3:30 AM55 °FPassing clouds.12 mph63%30.24 "HgN/A
3:00 AM55 °FPassing clouds.13 mph63%30.24 "HgN/A
2:30 AM55 °FPassing clouds.10 mph67%30.24 "HgN/A
2:00 AM54 °FPartly cloudy.13 mph77%30.27 "HgN/A
1:30 AM54 °FPassing clouds.8 mph77%30.27 "HgN/A
1:00 AM54 °FPassing clouds.9 mph72%30.27 "HgN/A
Weather by CustomWeather, © 2014

See weather overviewHow to use our weather pages